IRM081 OIIE-UTAA

Flight info

Callsign IRM081
Flight time 1h 0m
Altitude 39000
Route DHN B451 BRD L720 RIKOP RIK29A
Aircraft A346/H-SDE2E3FGHIJ3J4J5M1RWXY/LB1D1

Departure

Time 2026-05-08 14:06
Airport Imam Khomeini International Airport (OIIE)

Arrival

Time 2026-05-08 15:06
Airport Ashgabat International Airport (UTAA)
Time Latitude Longitude Altitude Speed Heading
2026-05-08 13:36 35.41136 51.15178 3278 ft 0 kts 199°
2026-05-08 13:52 35.41152 51.15186 3283 ft 4 kts 206°
2026-05-08 13:52 35.41167 51.15196 3281 ft 4 kts 217°
2026-05-08 13:52 35.41184 51.15217 3274 ft 4 kts 238°
2026-05-08 13:53 35.41192 51.15242 3276 ft 4 kts 265°
2026-05-08 13:53 35.41190 51.15266 3282 ft 1 kts 288°
2026-05-08 13:53 35.41190 51.15267 3282 ft 0 kts 288°
2026-05-08 13:57 35.41197 51.15241 3276 ft 7 kts 288°
2026-05-08 13:57 35.41214 51.15178 3277 ft 9 kts 289°
2026-05-08 13:58 35.41260 51.15140 3282 ft 11 kts 10°
2026-05-08 13:58 35.41343 51.15170 3272 ft 13 kts 18°
2026-05-08 13:58 35.41432 51.15205 3276 ft 14 kts 18°
2026-05-08 13:58 35.41516 51.15196 3280 ft 13 kts 307°
2026-05-08 13:59 35.41550 51.15086 3280 ft 14 kts 289°
2026-05-08 13:59 35.41585 51.14963 3282 ft 18 kts 289°
2026-05-08 13:59 35.41631 51.14797 3293 ft 24 kts 289°
2026-05-08 13:59 35.41694 51.14570 3292 ft 30 kts 289°
2026-05-08 14:00 35.41763 51.14325 3289 ft 31 kts 289°
2026-05-08 14:00 35.41831 51.14081 3295 ft 30 kts 289°
2026-05-08 14:00 35.41897 51.13843 3299 ft 29 kts 289°
2026-05-08 14:00 35.41960 51.13617 3304 ft 27 kts 289°
2026-05-08 14:01 35.42019 51.13403 3312 ft 26 kts 289°
2026-05-08 14:01 35.42076 51.13197 3313 ft 26 kts 289°
2026-05-08 14:01 35.42135 51.12984 3314 ft 27 kts 289°
2026-05-08 14:01 35.42198 51.12763 3314 ft 27 kts 289°
2026-05-08 14:02 35.42248 51.12585 3318 ft 20 kts 288°
2026-05-08 14:02 35.42292 51.12425 3320 ft 16 kts 288°
2026-05-08 14:02 35.42324 51.12304 3323 ft 15 kts 288°
2026-05-08 14:02 35.42349 51.12217 3323 ft 10 kts 297°
2026-05-08 14:03 35.42408 51.12185 3324 ft 7 kts
2026-05-08 14:03 35.42434 51.12195 3325 ft 3 kts 19°
2026-05-08 14:03 35.42456 51.12204 3325 ft 3 kts 19°
2026-05-08 14:03 35.42477 51.12213 3326 ft 3 kts 19°
2026-05-08 14:04 35.42500 51.12223 3326 ft 4 kts 19°
2026-05-08 14:04 35.42516 51.12241 3327 ft 4 kts 69°
2026-05-08 14:04 35.42516 51.12284 3326 ft 6 kts 103°
2026-05-08 14:04 35.42512 51.12299 3326 ft 0 kts 108°
2026-05-08 14:05 35.42467 51.12464 3324 ft 51 kts 109°
2026-05-08 14:05 35.42285 51.13119 3312 ft 111 kts 109°
2026-05-08 14:05 35.41968 51.14248 3296 ft 163 kts 108°
2026-05-08 14:06 35.41579 51.15701 3528 ft 187 kts 110°
2026-05-08 14:06 35.41176 51.17223 4126 ft 193 kts 111°
2026-05-08 14:06 35.40864 51.18850 4705 ft 200 kts 102°
2026-05-08 14:06 35.40725 51.20566 5294 ft 206 kts 100°
2026-05-08 14:07 35.40547 51.22364 5683 ft 218 kts 101°
2026-05-08 14:07 35.40343 51.24266 5961 ft 231 kts 101°
2026-05-08 14:07 35.40129 51.26275 6275 ft 244 kts 100°
2026-05-08 14:07 35.39929 51.28422 6440 ft 265 kts 99°
2026-05-08 14:08 35.39718 51.30787 6563 ft 290 kts 99°
2026-05-08 14:08 35.39478 51.33317 6945 ft 304 kts 99°
2026-05-08 14:08 35.39241 51.35868 7808 ft 298 kts 99°
2026-05-08 14:08 35.39010 51.38381 8702 ft 295 kts 99°
2026-05-08 14:09 35.38772 51.40892 9466 ft 298 kts 99°
2026-05-08 14:09 35.38529 51.43432 10208 ft 301 kts 99°
2026-05-08 14:09 35.38279 51.46031 10690 ft 314 kts 99°
2026-05-08 14:09 35.38012 51.48764 11049 ft 332 kts 99°
2026-05-08 14:10 35.37729 51.51659 11445 ft 350 kts 99°
2026-05-08 14:10 35.37431 51.54709 11823 ft 369 kts 99°
2026-05-08 14:10 35.37115 51.57932 12187 ft 388 kts 99°
2026-05-08 14:10 35.36789 51.61289 12659 ft 402 kts 99°
2026-05-08 14:11 35.36459 51.64676 13446 ft 407 kts 99°
2026-05-08 14:11 35.36121 51.68143 14238 ft 412 kts 99°
2026-05-08 14:11 35.35776 51.71660 14950 ft 418 kts 99°
2026-05-08 14:11 35.35424 51.75230 15638 ft 424 kts 99°
2026-05-08 14:12 35.35065 51.78851 16321 ft 431 kts 100°
2026-05-08 14:12 35.34700 51.82528 17029 ft 437 kts 100°
2026-05-08 14:12 35.34329 51.86256 17723 ft 443 kts 101°
2026-05-08 14:12 35.33949 51.90042 18376 ft 449 kts 101°
2026-05-08 14:13 35.33563 51.93865 18976 ft 455 kts 101°
2026-05-08 14:13 35.33170 51.97732 19592 ft 459 kts 101°
2026-05-08 14:13 35.32774 52.01633 20263 ft 463 kts 101°
2026-05-08 14:13 35.32374 52.05571 20867 ft 467 kts 101°
2026-05-08 14:14 35.31970 52.09537 21543 ft 470 kts 101°
2026-05-08 14:14 35.31562 52.13534 22197 ft 474 kts 101°
2026-05-08 14:14 35.31149 52.17564 22804 ft 478 kts 101°
2026-05-08 14:14 35.30730 52.21629 23397 ft 483 kts 101°
2026-05-08 14:15 35.30306 52.25732 23891 ft 487 kts 102°
2026-05-08 14:15 35.29879 52.29871 24384 ft 492 kts 102°
2026-05-08 14:15 35.29447 52.34050 24868 ft 496 kts 102°
2026-05-08 14:15 35.29008 52.38259 25354 ft 500 kts 103°
2026-05-08 14:16 35.28562 52.42507 25787 ft 505 kts 103°
2026-05-08 14:16 35.28111 52.46789 26220 ft 509 kts 103°
2026-05-08 14:16 35.27653 52.51115 26664 ft 514 kts 103°
2026-05-08 14:16 35.27188 52.55486 27102 ft 518 kts 103°
2026-05-08 14:17 35.26717 52.59894 27534 ft 523 kts 104°
2026-05-08 14:17 35.26254 52.64337 27971 ft 529 kts 102°
2026-05-08 14:17 35.26199 52.68851 28383 ft 542 kts 90°
2026-05-08 14:17 35.26868 52.73436 29014 ft 550 kts 78°
2026-05-08 14:18 35.28254 52.77827 29694 ft 555 kts 65°
2026-05-08 14:18 35.30195 52.81923 30347 ft 555 kts 60°
2026-05-08 14:18 35.32275 52.85911 30885 ft 555 kts 58°
2026-05-08 14:18 35.34382 52.89885 31302 ft 558 kts 59°
2026-05-08 14:19 35.36486 52.93897 31718 ft 560 kts 59°
2026-05-08 14:19 35.38573 52.97937 32183 ft 561 kts 59°
2026-05-08 14:19 35.40647 53.02001 32669 ft 562 kts 60°
2026-05-08 14:19 35.42713 53.06086 33108 ft 564 kts 60°
2026-05-08 14:20 35.44780 53.10187 33533 ft 566 kts 60°
2026-05-08 14:20 35.46852 53.14304 33969 ft 567 kts 60°
2026-05-08 14:20 35.48927 53.18433 34358 ft 568 kts 60°
2026-05-08 14:20 35.51005 53.22575 34766 ft 569 kts 60°
2026-05-08 14:21 35.53085 53.26724 35118 ft 570 kts 60°
2026-05-08 14:21 35.55167 53.30881 35512 ft 570 kts 60°
2026-05-08 14:21 35.57246 53.35036 35904 ft 570 kts 59°
2026-05-08 14:21 35.59299 53.39135 36244 ft 571 kts 59°
2026-05-08 14:22 35.61386 53.43302 36566 ft 572 kts 59°
2026-05-08 14:22 35.63476 53.47478 36867 ft 573 kts 59°
2026-05-08 14:22 35.65568 53.51663 37159 ft 575 kts 59°
2026-05-08 14:22 35.67666 53.55868 37423 ft 576 kts 59°
2026-05-08 14:23 35.69763 53.60076 37646 ft 578 kts 59°
2026-05-08 14:23 35.71872 53.64315 37875 ft 581 kts 59°
2026-05-08 14:23 35.73985 53.68568 38080 ft 583 kts 59°
2026-05-08 14:23 35.76101 53.72831 38290 ft 585 kts 59°
2026-05-08 14:24 35.78230 53.77126 38524 ft 585 kts 59°
2026-05-08 14:24 35.80347 53.81403 38852 ft 584 kts 59°
2026-05-08 14:24 35.82461 53.85678 38990 ft 584 kts 59°
2026-05-08 14:25 35.86691 53.94250 38997 ft 584 kts 59°
2026-05-08 14:25 35.90911 54.02823 38983 ft 584 kts 59°
2026-05-08 14:26 35.95126 54.11407 38959 ft 584 kts 59°
2026-05-08 14:26 35.99343 54.20015 38939 ft 584 kts 59°
2026-05-08 14:27 36.03513 54.28559 38919 ft 584 kts 59°
2026-05-08 14:27 36.07710 54.37175 38914 ft 584 kts 59°
2026-05-08 14:28 36.11902 54.45801 38914 ft 585 kts 59°
2026-05-08 14:28 36.16091 54.54430 38914 ft 584 kts 59°
2026-05-08 14:29 36.20272 54.63048 38917 ft 583 kts 59°
2026-05-08 14:29 36.24442 54.71670 38920 ft 583 kts 59°
2026-05-08 14:30 36.28606 54.80312 38927 ft 581 kts 59°
2026-05-08 14:30 36.32748 54.88926 38986 ft 581 kts 59°
2026-05-08 14:31 36.36884 54.97549 38994 ft 581 kts 59°
2026-05-08 14:31 36.41000 55.06167 39001 ft 580 kts 58°
2026-05-08 14:32 36.47283 55.19003 39017 ft 578 kts 57°
2026-05-08 14:32 36.51505 55.27513 39015 ft 578 kts 57°
2026-05-08 14:33 36.55669 55.35978 39019 ft 576 kts 57°
2026-05-08 14:33 36.59855 55.44504 39046 ft 576 kts 57°
2026-05-08 14:34 36.64027 55.53033 39053 ft 576 kts 57°
2026-05-08 14:34 36.68203 55.61584 39037 ft 577 kts 57°
2026-05-08 14:35 36.72378 55.70133 39033 ft 577 kts 57°
2026-05-08 14:35 36.76544 55.78691 38946 ft 574 kts 57°
2026-05-08 14:36 36.78603 55.82941 38417 ft 573 kts 57°
2026-05-08 14:36 36.80681 55.87222 37564 ft 577 kts 57°
2026-05-08 14:36 36.82770 55.91522 36833 ft 578 kts 58°
2026-05-08 14:36 36.84823 55.95758 36213 ft 576 kts 58°
2026-05-08 14:37 36.86890 56.00028 35634 ft 573 kts 59°
2026-05-08 14:37 36.88947 56.04291 34989 ft 571 kts 59°
2026-05-08 14:37 36.90995 56.08541 34318 ft 569 kts 59°
2026-05-08 14:37 36.93033 56.12778 33584 ft 567 kts 60°
2026-05-08 14:38 36.95056 56.16989 32962 ft 562 kts 60°
2026-05-08 14:38 36.96384 56.19759 32628 ft 558 kts 60°
2026-05-08 14:38 36.99026 56.25276 32173 ft 545 kts 60°
2026-05-08 14:38 37.00953 56.29305 31821 ft 536 kts 60°
2026-05-08 14:39 37.02216 56.31949 31568 ft 531 kts 60°
2026-05-08 14:39 37.04098 56.35891 31225 ft 523 kts 60°
2026-05-08 14:39 37.05956 56.39784 30927 ft 516 kts 61°
2026-05-08 14:39 37.07787 56.43630 30521 ft 511 kts 61°
2026-05-08 14:40 37.09605 56.47451 30048 ft 509 kts 61°
2026-05-08 14:40 37.11415 56.51259 29558 ft 506 kts 61°
2026-05-08 14:40 37.13208 56.55038 29148 ft 502 kts 61°
2026-05-08 14:40 37.14986 56.58788 28769 ft 496 kts 61°
2026-05-08 14:41 37.16738 56.62488 28416 ft 491 kts 61°
2026-05-08 14:41 37.18473 56.66154 28060 ft 485 kts 61°
2026-05-08 14:41 37.20189 56.69783 27700 ft 480 kts 61°
2026-05-08 14:41 37.21885 56.73372 27338 ft 475 kts 61°
2026-05-08 14:42 37.23562 56.76930 26983 ft 471 kts 61°
2026-05-08 14:42 37.25205 56.80418 26624 ft 468 kts 61°
2026-05-08 14:42 37.26875 56.83968 26249 ft 464 kts 61°
2026-05-08 14:42 37.28492 56.87409 25918 ft 460 kts 60°
2026-05-08 14:43 37.30117 56.90860 25564 ft 456 kts 60°
2026-05-08 14:43 37.31727 56.94279 25233 ft 453 kts 60°
2026-05-08 14:43 37.33327 56.97679 24877 ft 450 kts 60°
2026-05-08 14:43 37.34910 57.01047 24518 ft 447 kts 60°
2026-05-08 14:44 37.36485 57.04404 24164 ft 444 kts 60°
2026-05-08 14:44 37.38050 57.07746 23838 ft 443 kts 60°
2026-05-08 14:44 37.39622 57.11105 23644 ft 444 kts 60°
2026-05-08 14:44 37.41188 57.14462 23373 ft 444 kts 60°
2026-05-08 14:45 37.42751 57.17809 23108 ft 442 kts 60°
2026-05-08 14:45 37.44310 57.21146 22913 ft 441 kts 60°
2026-05-08 14:45 37.45861 57.24471 22647 ft 438 kts 60°
2026-05-08 14:45 37.47401 57.27779 22385 ft 436 kts 60°
2026-05-08 14:46 37.48842 57.31128 22121 ft 434 kts 66°
2026-05-08 14:46 37.49967 57.34647 21867 ft 431 kts 73°
2026-05-08 14:46 37.50783 57.38259 21607 ft 427 kts 77°
2026-05-08 14:46 37.51495 57.41893 21353 ft 426 kts 78°
2026-05-08 14:47 37.52189 57.45521 21096 ft 423 kts 78°
2026-05-08 14:47 37.52880 57.49118 20843 ft 421 kts 78°
2026-05-08 14:47 37.53576 57.52704 20580 ft 419 kts 78°
2026-05-08 14:47 37.54272 57.56265 20328 ft 417 kts 78°
2026-05-08 14:48 37.54968 57.59813 20094 ft 415 kts 78°
2026-05-08 14:48 37.55660 57.63346 19840 ft 413 kts 78°
2026-05-08 14:48 37.56350 57.66856 19598 ft 412 kts 78°
2026-05-08 14:48 37.57035 57.70359 19350 ft 411 kts 78°
2026-05-08 14:49 37.57717 57.73854 19109 ft 408 kts 78°
2026-05-08 14:49 37.58396 57.77325 18871 ft 406 kts 78°
2026-05-08 14:49 37.59071 57.80782 18637 ft 405 kts 78°
2026-05-08 14:49 37.59739 57.84215 18410 ft 398 kts 78°
2026-05-08 14:50 37.60385 57.87533 18147 ft 390 kts 78°
2026-05-08 14:50 37.61026 57.90827 17875 ft 383 kts 78°
2026-05-08 14:50 37.61652 57.94060 17598 ft 375 kts 78°
2026-05-08 14:50 37.62267 57.97243 17363 ft 369 kts 78°
2026-05-08 14:51 37.62868 58.00356 17109 ft 362 kts 78°
2026-05-08 14:51 37.63452 58.03382 17055 ft 348 kts 78°
2026-05-08 14:51 37.64020 58.06332 17062 ft 344 kts 78°
2026-05-08 14:51 37.64586 58.09286 17069 ft 344 kts 78°
2026-05-08 14:52 37.65148 58.12222 17070 ft 344 kts 78°
2026-05-08 14:52 37.66273 58.18102 17066 ft 344 kts 78°
2026-05-08 14:52 37.66830 58.21033 17062 ft 343 kts 78°
2026-05-08 14:53 37.67466 58.23939 17047 ft 343 kts 68°
2026-05-08 14:53 37.68718 58.26477 16796 ft 339 kts 49°
2026-05-08 14:53 37.70297 58.28685 16401 ft 339 kts 45°
2026-05-08 14:53 37.71934 58.30856 15897 ft 344 kts 45°
2026-05-08 14:54 37.73601 58.33073 15264 ft 351 kts 46°
2026-05-08 14:54 37.75293 58.35358 14665 ft 358 kts 46°
2026-05-08 14:54 37.76998 58.37689 14060 ft 363 kts 47°
2026-05-08 14:54 37.78709 58.40049 13434 ft 364 kts 47°
2026-05-08 14:55 37.80421 58.42420 12790 ft 364 kts 47°
2026-05-08 14:55 37.82107 58.44760 12177 ft 364 kts 47°
2026-05-08 14:55 37.83803 58.47114 11734 ft 357 kts 48°
2026-05-08 14:55 37.85449 58.49403 11508 ft 344 kts 48°
2026-05-08 14:56 37.87033 58.51607 11295 ft 332 kts 48°
2026-05-08 14:56 37.88564 58.53738 11079 ft 321 kts 48°
2026-05-08 14:56 37.90039 58.55793 10881 ft 309 kts 48°
2026-05-08 14:56 37.91462 58.57777 10688 ft 299 kts 49°
2026-05-08 14:57 37.92839 58.59697 10477 ft 289 kts 49°
2026-05-08 14:57 37.94092 58.61638 10297 ft 280 kts 65°
2026-05-08 14:57 37.94684 58.63937 10044 ft 271 kts 82°
2026-05-08 14:57 37.95029 58.66276 9749 ft 269 kts 84°
2026-05-08 14:58 37.95347 58.68601 9445 ft 267 kts 83°
2026-05-08 14:58 37.95683 58.70905 9158 ft 264 kts 82°
2026-05-08 14:58 37.96034 58.73185 8866 ft 262 kts 82°
2026-05-08 14:58 37.96391 58.75443 8590 ft 259 kts 83°
2026-05-08 14:59 37.96384 58.77676 8271 ft 251 kts 111°
2026-05-08 14:59 37.94186 58.80629 7708 ft 234 kts 164°
2026-05-08 14:59 37.92591 58.80844 7393 ft 232 kts 188°
2026-05-08 15:00 37.91081 58.80143 7075 ft 234 kts 213°
2026-05-08 15:00 37.89953 58.78649 6717 ft 239 kts 239°
2026-05-08 15:00 37.89464 58.76612 6237 ft 249 kts 266°
2026-05-08 15:00 37.89757 58.74435 5833 ft 253 kts 285°
2026-05-08 15:01 37.90317 58.72333 5524 ft 250 kts 287°
2026-05-08 15:01 37.90880 58.70237 5072 ft 253 kts 286°
2026-05-08 15:01 37.91448 58.68102 4630 ft 256 kts 286°
2026-05-08 15:01 37.92014 58.65971 4192 ft 257 kts 287°
2026-05-08 15:02 37.92592 58.63794 3658 ft 261 kts 287°
2026-05-08 15:02 37.93167 58.61617 3282 ft 259 kts 285°
2026-05-08 15:02 37.93280 58.59372 2854 ft 257 kts 255°
2026-05-08 15:02 37.92793 58.57245 2699 ft 246 kts 252°
2026-05-08 15:03 37.92310 58.55204 2541 ft 237 kts 253°
2026-05-08 15:03 37.91897 58.53232 2500 ft 224 kts 263°
2026-05-08 15:03 37.92175 58.51403 2494 ft 203 kts 296°
2026-05-08 15:03 37.92872 58.49933 2493 ft 191 kts 304°
2026-05-08 15:04 37.93619 58.48549 2485 ft 190 kts 304°
2026-05-08 15:04 37.94323 58.47143 2282 ft 185 kts 301°
2026-05-08 15:04 37.94946 58.45761 2034 ft 175 kts 300°
2026-05-08 15:04 37.95513 58.44460 1787 ft 162 kts 301°
2026-05-08 15:05 37.96055 58.43230 1607 ft 158 kts 301°
2026-05-08 15:05 37.96595 58.42017 1422 ft 157 kts 301°
2026-05-08 15:05 37.97138 58.40813 1248 ft 157 kts 300°
2026-05-08 15:05 37.97684 58.39610 990 ft 156 kts 298°
2026-05-08 15:06 37.98207 58.38401 779 ft 156 kts 298°
2026-05-08 15:06 37.98725 58.37229 682 ft 136 kts 299°
2026-05-08 15:06 37.99078 58.36435 680 ft 72 kts 300°
2026-05-08 15:06 37.99268 58.36009 682 ft 44 kts 299°
2026-05-08 15:07 37.99356 58.35768 688 ft 24 kts 278°
2026-05-08 15:07 37.99356 58.35565 686 ft 15 kts 261°
2026-05-08 15:07 37.99315 58.35483 684 ft 12 kts 217°
2026-05-08 15:07 37.99248 58.35521 679 ft 14 kts 123°
2026-05-08 15:08 37.99194 58.35638 681 ft 17 kts 119°
2026-05-08 15:08 37.99153 58.35731 681 ft 19 kts 119°
2026-05-08 15:08 37.99060 58.35941 682 ft 22 kts 120°
2026-05-08 15:08 37.98981 58.36117 681 ft 24 kts 120°
2026-05-08 15:09 37.98898 58.36302 679 ft 23 kts 120°
2026-05-08 15:09 37.98832 58.36451 682 ft 17 kts 120°
2026-05-08 15:09 37.98776 58.36575 680 ft 14 kts 119°
2026-05-08 15:09 37.98738 58.36643 679 ft 10 kts 147°
2026-05-08 15:10 37.98661 58.36632 683 ft 13 kts 206°
2026-05-08 15:10 37.98592 58.36618 678 ft 11 kts 158°
2026-05-08 15:10 37.98537 58.36654 684 ft 7 kts 159°
2026-05-08 15:10 37.98504 58.36666 682 ft 3 kts 166°
2026-05-08 15:11 37.98494 58.36669 686 ft 0 kts 166°